Powrót do katalogu

FENGYUN 1C DEB

AktywnyPO
NORAD 36225·DEBRIS·🇨🇳 China

Wystrzelony May 10, 1999 z Taiyuan Satellite Launch Center

Loading…

Następne Przeloty (najbliższe 24 godziny)

TLE

ŚwieżeSource: Space-Track

Epoka: Sep 14, 2026, 17:42 UTC

1 36225U 99025DVA 26257.73783229  .00081372  00000-0  21430-2 0  9999
2 36225  98.8286  71.2378 0019758  80.1508 280.1962 15.38027102709688

Śledź FENGYUN 1C DEB w czasie rzeczywistym z AllMySat

Download on the App Store